Back to catalog

METEOR 3-4

AliveWeatherPO
NORAD 21232·PAYLOAD·🇷🇺 Russia

Launched Apr 24, 1991 from Plesetsk Cosmodrome

Loading…

Next Passes (next 24 hours)

TLE

FreshSource: Space-Track

Epoch: Sep 14, 2026, 14:27 UTC

1 21232U 91030A   26257.60233192  .00000051  00000-0  10067-3 0  9994
2 21232  82.5411 121.0983 0012060 298.4466  89.0958 13.16703655700873

Track METEOR 3-4 in real time with AllMySat

Download on the App Store